BRO-14

operational
NORAD ID: 60551 Int'l Des: 2024-149 Owner: UNSEEN Country: F
LEOCIRCULARRETROGRADESSO

About BRO-14

Description loading...

Live Position

Loading 3D Globe...

Upcoming Passes

Altitude History

Altitude vs Time

uPlot chart will show altitude changes over time

Two-Line Element Set

1 60551U 24149CM 26063.12094862 .00001495 00000-0 13862-3 0 9998
2 60551 97.6945 140.7757 0008139 89.8805 270.3349 14.95911798 84283
Epoch: Mar 4, 2026 • Age: 11 hours

Current Status

Altitude 591.5 km
Velocity 7.56 km/s
Sub-Earth Point -25.45°S, 179.68°W
Launch Date Aug 16, 2024
Age 1.5 years
Type other

Technical Details

Classification Payload
Mass 15.00 kg
Dry Mass 15.00 kg
Total Mass 15.00 kg
Length 0.40 m
Diameter 0.20 m
Span 0.40 m
Shape Box
Manufacturer GOMSP
Bus Type Cubesat 8U
Phase Status In Orbit
Owner/State UNSEEN/F

Large Constellations

Loading constellations...